Starlink 1566

operational
NORAD ID: 46079 Int'l Des: 2020-055 Owner: SPXS Country: US Constellation: starlink
LEOCIRCULARSTARLINK_TYPE

关于 Starlink 1566

正在加载描述...

实时位置

正在加载3D地球...

即将过境

高度历史

Altitude vs Time

uPlot chart will show altitude changes over time

两行轨道根数

1 46079U 20055BE 25304.35521785 .00009365 00000-0 64685-3 0 9993
2 46079 53.0546 317.2239 0001442 80.4270 279.6882 15.06395039289811
Epoch: Oct 31, 2025 • Age: 10 hours

当前状态

高度 547.2 km
速度 7.59 km/s
星下点 15.36°N, 161.29°E
发射日期 Aug 7, 2020
运行时间 5.2 years
类型 internet

技术详情

分类 Payload
质量 260.00 kg
干质量 248.00 kg
总质量 260.00 kg
长度 0.20 m
直径 2.80 m
跨度 9.00 m
形状 Box + pan
制造商 SPXS
平台类型 Starlink
阶段状态 In Orbit
所有者/国家 SPXS/US

大型星座

Loading constellations...